Location: Unspecified
(40.6580°N, 0.0000°E)
Time: 03:28:45
(UTC+00:00)

Meteor 1-22 Rocket - Visible Passes

Search period start: 04 April 2026 00:00
Search period end: 14 April 2026 00:00
Orbit: 787 x 938 km, 81.2° (Epoch: 29 March)

Date Brightness Start Highest point End Pass type
(mag) Time Alt. Az. Time Alt. Az. Time Alt. Az.
4 Apr 4.1 19:56:13 10° S 20:01:35 68° E 20:07:13 10° NNE visible
4 Apr 6.9 21:42:10 10° W 21:45:24 16° WNW 21:48:43 10° NNW visible
5 Apr 4.1 19:47:41 10° S 19:53:04 67° E 19:58:43 10° NNE visible
5 Apr 6.9 21:33:33 10° WSW 21:36:52 16° WNW 21:40:17 10° NNW visible
6 Apr 4.1 19:39:09 10° S 19:44:32 66° E 19:50:12 10° NNE visible
6 Apr 6.9 21:24:56 10° WSW 21:28:20 16° WNW 21:31:49 10° NNW visible
7 Apr 4.2 19:30:36 10° S 19:36:01 65° E 19:41:41 10° NNE visible
7 Apr 6.9 21:16:20 10° WSW 21:19:48 17° WNW 21:23:21 10° NNW visible
8 Apr 4.2 19:22:04 10° S 19:27:29 64° E 19:33:10 10° NNE visible
8 Apr 6.9 21:07:43 10° WSW 21:11:15 17° WNW 21:14:53 10° NNW visible
9 Apr 4.2 19:13:32 10° S 19:18:58 64° E 19:24:40 10° NNE visible
9 Apr 7.0 20:59:06 10° WSW 21:02:43 17° WNW 21:06:25 10° NNW visible
10 Apr 4.2 19:05:00 10° S 19:10:26 63° E 19:16:09 10° NNE visible
10 Apr 7.0 20:50:30 10° WSW 20:54:10 18° WNW 20:57:58 10° NNW visible
11 Apr 4.3 18:56:28 10° S 19:01:55 62° E 19:07:38 10° NNE visible
11 Apr 7.0 20:41:54 10° WSW 20:45:38 18° WNW 20:49:29 10° NNW visible
12 Apr 7.0 20:33:17 10° WSW 20:37:06 18° WNW 20:41:02 10° NNW visible
13 Apr 7.1 20:24:41 10° WSW 20:28:34 19° WNW 20:32:33 10° NNW visible
